Time,TemperatureF,DewpointF,PressureIn,WindDirection,WindDirectionDegrees,WindSpeedMPH,WindSpeedGustMPH,Humidity,HourlyPrecipIn,Conditions,Clouds,dailyrainin,SoftwareType,DateUTC
2013-09-11 00:11:00,64.7,63.0,30.21,WNW,291,2.0,2.0,94,0.00,,,0.00,weatherlink.com 1.10,2013-09-11 04:11:00,
2013-09-11 00:26:00,64.6,63.0,30.21,WNW,291,1.0,2.0,95,0.00,,,0.00,weatherlink.com 1.10,2013-09-11 04:26:00,
2013-09-11 00:41:00,64.5,63.0,30.20,WNW,291,1.0,1.0,95,0.00,,,0.00,weatherlink.com 1.10,2013-09-11 04:41:00,
2013-09-11 00:56:00,64.4,63.0,30.19,WNW,291,1.0,1.0,95,0.00,,,0.00,weatherlink.com 1.10,2013-09-11 04:56:00,
2013-09-11 01:11:00,64.3,63.0,30.19,WNW,291,1.0,2.0,95,0.00,,,0.00,weatherlink.com 1.10,2013-09-11 05:11:00,
2013-09-11 01:26:00,64.2,63.0,30.19,WNW,291,1.0,2.0,95,0.00,,,0.00,weatherlink.com 1.10,2013-09-11 05:26:00,
2013-09-11 01:41:00,64.2,63.0,30.19,WNW,289,1.0,2.0,95,0.00,,,0.00,weatherlink.com 1.10,2013-09-11 05:41:00,
2013-09-11 01:56:00,64.1,63.0,30.19,WNW,291,1.0,2.0,95,0.00,,,0.00,weatherlink.com 1.10,2013-09-11 05:56:00,
2013-09-11 02:11:00,64.0,63.0,30.19,WNW,291,1.0,2.0,95,0.00,,,0.00,weatherlink.com 1.10,2013-09-11 06:11:00,
2013-09-11 02:26:00,63.7,62.0,30.18,WNW,291,1.0,2.0,95,0.00,,,0.00,weatherlink.com 1.10,2013-09-11 06:26:00,
2013-09-11 02:41:00,63.4,62.0,30.18,WNW,291,1.0,2.0,95,0.00,,,0.00,weatherlink.com 1.10,2013-09-11 06:41:00,
2013-09-11 02:56:00,63.3,62.0,30.17,WNW,293,1.0,2.0,95,0.00,,,0.00,weatherlink.com 1.10,2013-09-11 06:56:00,
2013-09-11 03:11:00,63.1,62.0,30.17,WNW,293,2.0,2.0,96,0.00,,,0.00,weatherlink.com 1.10,2013-09-11 07:11:00,
2013-09-11 03:26:00,63.0,62.0,30.17,WNW,293,2.0,2.0,96,0.00,,,0.00,weatherlink.com 1.10,2013-09-11 07:26:00,
2013-09-11 03:41:00,62.9,62.0,30.17,WNW,293,2.0,2.0,96,0.00,,,0.00,weatherlink.com 1.10,2013-09-11 07:41:00,
2013-09-11 03:56:00,63.0,62.0,30.17,WNW,293,1.0,2.0,96,0.00,,,0.00,weatherlink.com 1.10,2013-09-11 07:56:00,
2013-09-11 04:11:00,63.0,62.0,30.17,WNW,293,2.0,3.0,96,0.00,,,0.00,weatherlink.com 1.10,2013-09-11 08:11:00,
2013-09-11 04:26:00,62.9,62.0,30.17,WNW,293,1.0,2.0,96,0.00,,,0.00,weatherlink.com 1.10,2013-09-11 08:26:00,
2013-09-11 04:42:00,62.8,62.0,30.17,WNW,293,2.0,2.0,96,0.00,,,0.00,weatherlink.com 1.10,2013-09-11 08:42:00,
2013-09-11 04:57:00,63.0,62.0,30.17,WNW,293,2.0,2.0,96,0.00,,,0.00,weatherlink.com 1.10,2013-09-11 08:57:00,
2013-09-11 05:12:00,63.2,62.0,30.17,WNW,293,1.0,3.0,96,0.00,,,0.00,weatherlink.com 1.10,2013-09-11 09:12:00,
2013-09-11 05:27:00,63.1,62.0,30.17,WNW,293,2.0,3.0,96,0.00,,,0.00,weatherlink.com 1.10,2013-09-11 09:27:00,
2013-09-11 05:42:00,63.1,62.0,30.18,WNW,293,1.0,3.0,96,0.00,,,0.00,weatherlink.com 1.10,2013-09-11 09:42:00,
2013-09-11 05:57:00,63.2,62.0,30.18,WNW,293,1.0,2.0,96,0.00,,,0.00,weatherlink.com 1.10,2013-09-11 09:57:00,
2013-09-11 06:12:00,62.9,62.0,30.18,WNW,293,2.0,2.0,96,0.00,,,0.00,weatherlink.com 1.10,2013-09-11 10:12:00,
2013-09-11 06:27:00,62.8,62.0,30.18,WNW,293,2.0,2.0,97,0.00,,,0.00,weatherlink.com 1.10,2013-09-11 10:27:00,
2013-09-11 06:42:00,62.8,62.0,30.19,WNW,293,1.0,3.0,96,0.00,,,0.00,weatherlink.com 1.10,2013-09-11 10:42:00,
2013-09-11 06:57:00,62.2,61.0,30.19,WNW,294,2.0,3.0,96,0.00,,,0.00,weatherlink.com 1.10,2013-09-11 10:57:00,
2013-09-11 07:27:00,61.5,60.0,30.19,WNW,293,2.0,3.0,96,0.00,,,0.00,weatherlink.com 1.10,2013-09-11 11:27:00,
2013-09-11 07:42:00,61.0,60.0,30.20,WNW,290,2.0,3.0,96,0.00,,,0.00,weatherlink.com 1.10,2013-09-11 11:42:00,
2013-09-11 07:57:00,61.0,60.0,30.20,WNW,293,2.0,2.0,96,0.00,,,0.00,weatherlink.com 1.10,2013-09-11 11:57:00,
2013-09-11 08:12:00,61.7,61.0,30.20,WNW,293,2.0,3.0,96,0.00,,,0.00,weatherlink.com 1.10,2013-09-11 12:12:00,
2013-09-11 08:27:00,62.4,61.0,30.21,WNW,290,1.0,2.0,96,0.00,,,0.00,weatherlink.com 1.10,2013-09-11 12:27:00,
2013-09-11 08:42:00,63.9,62.0,30.21,West,276,0.0,1.0,94,0.00,,,0.00,weatherlink.com 1.10,2013-09-11 12:42:00,
2013-09-11 08:57:00,66.1,64.0,30.20,WNW,284,0.0,0.0,94,0.00,,,0.00,weatherlink.com 1.10,2013-09-11 12:57:00,
2013-09-11 09:12:00,67.9,65.0,30.20,WNW,284,0.0,0.0,90,0.00,,,0.00,weatherlink.com 1.10,2013-09-11 13:12:00,
2013-09-11 09:27:00,69.7,65.0,30.20,WNW,283,0.0,0.0,86,0.00,,,0.00,weatherlink.com 1.10,2013-09-11 13:27:00,
2013-09-11 09:42:00,73.3,66.0,30.20,SE,124,0.0,0.0,79,0.00,,,0.00,weatherlink.com 1.10,2013-09-11 13:42:00,
2013-09-11 09:57:00,74.9,66.0,30.20,ESE,110,0.0,2.0,73,0.00,,,0.00,weatherlink.com 1.10,2013-09-11 13:57:00,
2013-09-11 10:12:00,74.9,66.0,30.20,SE,127,0.0,2.0,74,0.00,,,0.00,weatherlink.com 1.10,2013-09-11 14:12:00,
2013-09-11 10:27:00,75.9,66.0,30.20,ESE,109,0.0,1.0,71,0.00,,,0.00,weatherlink.com 1.10,2013-09-11 14:27:00,
2013-09-11 10:42:00,76.1,66.0,30.20,SSW,207,0.0,3.0,72,0.00,,,0.00,weatherlink.com 1.10,2013-09-11 14:42:00,
2013-09-11 10:57:00,76.8,65.0,30.20,SSE,150,1.0,3.0,66,0.00,,,0.00,weatherlink.com 1.10,2013-09-11 14:57:00,
2013-09-11 11:12:00,76.9,65.0,30.20,East,84,0.0,3.0,66,0.00,,,0.00,weatherlink.com 1.10,2013-09-11 15:12:00,
2013-09-11 11:27:00,78.1,65.0,30.20,SSW,195,0.0,0.0,64,0.00,,,0.00,weatherlink.com 1.10,2013-09-11 15:27:00,
2013-09-11 11:42:00,77.9,64.0,30.20,SE,139,0.0,2.0,62,0.00,,,0.00,weatherlink.com 1.10,2013-09-11 15:42:00,
2013-09-11 11:57:00,78.0,62.0,30.20,SE,136,0.0,4.0,58,0.00,,,0.00,weatherlink.com 1.10,2013-09-11 15:57:00,
2013-09-11 12:12:00,77.6,64.0,30.19,SE,138,2.0,3.0,63,0.00,,,0.00,weatherlink.com 1.10,2013-09-11 16:12:00,
2013-09-11 12:27:00,78.3,64.0,30.19,WSW,256,0.0,2.0,61,0.00,,,0.00,weatherlink.com 1.10,2013-09-11 16:27:00,
2013-09-11 12:42:00,79.0,62.0,30.19,SSW,210,2.0,3.0,57,0.00,,,0.00,weatherlink.com 1.10,2013-09-11 16:42:00,
2013-09-11 12:57:00,79.6,64.0,30.18,NE,43,0.0,1.0,59,0.00,,,0.00,weatherlink.com 1.10,2013-09-11 16:57:00,
2013-09-11 13:12:00,80.1,64.0,30.18,East,98,1.0,3.0,59,0.00,,,0.00,weatherlink.com 1.10,2013-09-11 17:12:00,
2013-09-11 13:28:00,79.8,64.0,30.17,ESE,105,0.0,0.0,58,0.00,,,0.00,weatherlink.com 1.10,2013-09-11 17:28:00,
2013-09-11 13:43:00,76.9,66.0,30.17,ESE,108,0.0,0.0,68,0.00,,,0.00,weatherlink.com 1.10,2013-09-11 17:43:00,
2013-09-11 14:13:00,73.8,67.0,30.16,ESE,108,0.0,0.0,79,0.00,,,0.00,weatherlink.com 1.10,2013-09-11 18:13:00,
2013-09-11 14:28:00,77.5,66.0,30.15,ENE,73,0.0,2.0,67,0.00,,,0.00,weatherlink.com 1.10,2013-09-11 18:28:00,
2013-09-11 14:43:00,79.2,66.0,30.14,SE,131,0.0,1.0,65,0.00,,,0.00,weatherlink.com 1.10,2013-09-11 18:43:00,
2013-09-11 14:58:00,78.6,67.0,30.13,ESE,107,4.0,4.0,67,0.00,,,0.00,weatherlink.com 1.10,2013-09-11 18:58:00,
2013-09-11 15:13:00,78.8,66.0,30.12,ENE,58,2.0,3.0,66,0.00,,,0.00,weatherlink.com 1.10,2013-09-11 19:13:00,
2013-09-11 15:28:00,77.4,65.0,30.12,NE,49,3.0,3.0,65,0.00,,,0.00,weatherlink.com 1.10,2013-09-11 19:28:00,
2013-09-11 15:43:00,77.0,65.0,30.11,NE,50,0.0,5.0,66,0.00,,,0.00,weatherlink.com 1.10,2013-09-11 19:43:00,
2013-09-11 15:58:00,78.2,67.0,30.11,East,94,0.0,0.0,68,0.00,,,0.00,weatherlink.com 1.10,2013-09-11 19:58:00,
2013-09-11 16:13:00,77.6,66.0,30.11,SSE,156,0.0,0.0,67,0.00,,,0.00,weatherlink.com 1.10,2013-09-11 20:13:00,
2013-09-11 16:28:00,76.7,67.0,30.11,East,93,0.0,2.0,71,0.00,,,0.00,weatherlink.com 1.10,2013-09-11 20:28:00,
2013-09-11 16:43:00,75.4,67.0,30.11,ENE,77,0.0,0.0,76,0.00,,,0.00,weatherlink.com 1.10,2013-09-11 20:43:00,
2013-09-11 16:58:00,73.6,67.0,30.10,ENE,77,0.0,0.0,80,0.00,,,0.00,weatherlink.com 1.10,2013-09-11 20:58:00,
2013-09-11 17:13:00,74.1,66.0,30.10,ENE,65,0.0,0.0,76,0.00,,,0.00,weatherlink.com 1.10,2013-09-11 21:13:00,
2013-09-11 17:28:00,73.9,68.0,30.10,ENE,72,0.0,0.0,82,0.00,,,0.00,weatherlink.com 1.10,2013-09-11 21:28:00,
2013-09-11 17:43:00,74.1,66.0,30.10,NE,53,0.0,0.0,77,0.00,,,0.00,weatherlink.com 1.10,2013-09-11 21:43:00,
2013-09-11 17:58:00,74.1,68.0,30.10,NE,55,0.0,0.0,82,0.00,,,0.00,weatherlink.com 1.10,2013-09-11 21:58:00,
2013-09-11 18:13:00,72.9,68.0,30.10,NE,56,0.0,0.0,83,0.00,,,0.00,weatherlink.com 1.10,2013-09-11 22:13:00,
2013-09-11 18:28:00,71.4,66.0,30.10,NE,54,0.0,0.0,84,0.00,,,0.00,weatherlink.com 1.10,2013-09-11 22:28:00,
2013-09-11 18:43:00,70.6,66.0,30.10,NNW,342,0.0,0.0,85,0.00,,,0.00,weatherlink.com 1.10,2013-09-11 22:43:00,
2013-09-11 18:58:00,70.1,67.0,30.10,WNW,300,0.0,0.0,88,0.00,,,0.00,weatherlink.com 1.10,2013-09-11 22:58:00,
2013-09-11 19:13:00,69.4,66.0,30.10,WNW,299,0.0,0.0,88,0.00,,,0.00,weatherlink.com 1.10,2013-09-11 23:13:00,
2013-09-11 19:28:00,68.7,65.0,30.11,WNW,299,0.0,0.0,89,0.00,,,0.00,weatherlink.com 1.10,2013-09-11 23:28:00,
2013-09-11 19:43:00,67.8,65.0,30.11,WNW,299,0.0,0.0,90,0.00,,,0.00,weatherlink.com 1.10,2013-09-11 23:43:00,
2013-09-11 19:58:00,67.3,64.0,30.11,WNW,294,0.0,0.0,89,0.00,,,0.00,weatherlink.com 1.10,2013-09-11 23:58:00,
2013-09-11 20:13:00,66.9,64.0,30.11,WNW,294,0.0,0.0,89,0.00,,,0.00,weatherlink.com 1.10,2013-09-12 00:13:00,
2013-09-11 20:28:00,66.7,63.0,30.11,WNW,294,0.0,0.0,88,0.00,,,0.00,weatherlink.com 1.10,2013-09-12 00:28:00,
2013-09-11 20:43:00,66.6,63.0,30.11,WNW,294,0.0,0.0,88,0.00,,,0.00,weatherlink.com 1.10,2013-09-12 00:43:00,
2013-09-11 20:58:00,66.6,63.0,30.11,WNW,293,0.0,0.0,88,0.00,,,0.00,weatherlink.com 1.10,2013-09-12 00:58:00,
2013-09-11 21:13:00,66.6,63.0,30.11,WNW,293,0.0,0.0,89,0.00,,,0.00,weatherlink.com 1.10,2013-09-12 01:13:00,
2013-09-11 21:28:00,66.9,63.0,30.11,WNW,297,0.0,0.0,88,0.00,,,0.00,weatherlink.com 1.10,2013-09-12 01:28:00,
2013-09-11 21:43:00,66.7,63.0,30.12,WNW,297,0.0,0.0,89,0.00,,,0.00,weatherlink.com 1.10,2013-09-12 01:43:00,
2013-09-11 21:58:00,66.4,63.0,30.12,WNW,287,0.0,0.0,89,0.00,,,0.00,weatherlink.com 1.10,2013-09-12 01:58:00,
2013-09-11 22:13:00,66.4,64.0,30.11,WNW,293,0.0,0.0,90,0.00,,,0.00,weatherlink.com 1.10,2013-09-12 02:13:00,
2013-09-11 22:28:00,66.6,64.0,30.11,West,273,0.0,0.0,90,0.00,,,0.00,weatherlink.com 1.10,2013-09-12 02:28:00,
2013-09-11 22:43:00,66.6,64.0,30.11,West,277,0.0,0.0,91,0.00,,,0.00,weatherlink.com 1.10,2013-09-12 02:43:00,
2013-09-11 22:58:00,66.6,64.0,30.11,WNW,285,0.0,0.0,92,0.00,,,0.00,weatherlink.com 1.10,2013-09-12 02:58:00,
2013-09-11 23:13:00,66.9,65.0,30.11,WNW,285,0.0,0.0,92,0.00,,,0.00,weatherlink.com 1.10,2013-09-12 03:13:00,
2013-09-11 23:28:00,67.1,65.0,30.11,WNW,285,0.0,0.0,91,0.00,,,0.00,weatherlink.com 1.10,2013-09-12 03:28:00,
2013-09-11 23:43:00,67.1,64.0,30.10,WNW,285,0.0,0.0,90,0.00,,,0.00,weatherlink.com 1.10,2013-09-12 03:43:00,
2013-09-11 23:58:00,66.9,64.0,30.09,WNW,282,0.0,0.0,91,0.00,,,0.00,weatherlink.com 1.10,2013-09-12 03:58:00,